QFA1 YSSY-WSSS

Flight info

Callsign QFA1
Flight time 7h 22m
Altitude 36000
Route KADOM A576 PKS G222 AGAGO/N0496F380 G222 SAPDA/N0492F400 A585 PLB G579 SJ
Aircraft A388/J-SADE2E3FGHIJ3J4J5M1RWXY/LB1D1

Departure

Time 2026-04-20 05:37
Airport Sydney Kingsford Smith International Airport (YSSY)

Arrival

Time 2026-04-20 13:00
Airport Singapore Changi Airport (WSSS)
Time Latitude Longitude Altitude Speed Heading
2026-04-20 05:09 -33.93477 151.16807 26 ft 0 kts 257°
2026-04-20 05:27 -33.93477 151.16808 26 ft 1 kts 257°
2026-04-20 05:27 -33.93472 151.16826 31 ft 2 kts 253°
2026-04-20 05:27 -33.93466 151.16845 31 ft 2 kts 248°
2026-04-20 05:27 -33.93459 151.16863 31 ft 2 kts 240°
2026-04-20 05:28 -33.93448 151.16878 31 ft 2 kts 227°
2026-04-20 05:28 -33.93435 151.16889 31 ft 2 kts 208°
2026-04-20 05:28 -33.93419 151.16894 31 ft 2 kts 187°
2026-04-20 05:28 -33.93405 151.16893 31 ft 1 kts 174°
2026-04-20 05:29 -33.93403 151.16893 30 ft 0 kts 172°
2026-04-20 05:32 -33.93406 151.16893 31 ft 2 kts 172°
2026-04-20 05:33 -33.93445 151.16901 31 ft 12 kts 168°
2026-04-20 05:33 -33.93508 151.16952 28 ft 9 kts 102°
2026-04-20 05:33 -33.93504 151.17024 28 ft 10 kts 81°
2026-04-20 05:33 -33.93478 151.17086 31 ft 8 kts 24°
2026-04-20 05:34 -33.93416 151.17079 28 ft 12 kts 346°
2026-04-20 05:34 -33.93315 151.17034 30 ft 19 kts 316°
2026-04-20 05:34 -33.93074 151.16915 28 ft 18 kts 346°
2026-04-20 05:35 -33.92997 151.16926 29 ft 10 kts 54°
2026-04-20 05:35 -33.92976 151.16992 27 ft 6 kts 75°
2026-04-20 05:35 -33.92975 151.16996 26 ft 0 kts 75°
2026-04-20 05:36 -33.92970 151.17018 27 ft 9 kts 77°
2026-04-20 05:36 -33.92959 151.17122 28 ft 13 kts 104°
2026-04-20 05:36 -33.93011 151.17178 28 ft 9 kts 164°
2026-04-20 05:36 -33.93153 151.17214 26 ft 43 kts 168°
2026-04-20 05:37 -33.93676 151.17351 24 ft 106 kts 168°
2026-04-20 05:37 -33.94544 151.17576 30 ft 145 kts 168°
2026-04-20 05:37 -33.95568 151.17853 359 ft 148 kts 167°
2026-04-20 05:37 -33.96584 151.18113 763 ft 156 kts 173°
2026-04-20 05:38 -33.97672 151.18093 1167 ft 156 kts 186°
2026-04-20 05:38 -33.98742 151.17893 1619 ft 155 kts 188°
2026-04-20 05:38 -33.99827 151.17676 1905 ft 164 kts 188°
2026-04-20 05:38 -34.01019 151.17526 2028 ft 180 kts 182°
2026-04-20 05:39 -34.02345 151.17498 2202 ft 203 kts 177°
2026-04-20 05:39 -34.03805 151.17811 2547 ft 224 kts 165°
2026-04-20 05:39 -34.05361 151.18376 2966 ft 240 kts 165°
2026-04-20 05:39 -34.06979 151.18935 3646 ft 245 kts 166°
2026-04-20 05:40 -34.08625 151.19487 4422 ft 247 kts 166°
2026-04-20 05:40 -34.10286 151.20040 5199 ft 249 kts 167°
2026-04-20 05:40 -34.11981 151.20519 5899 ft 251 kts 178°
2026-04-20 05:40 -34.13697 151.20157 6630 ft 253 kts 205°
2026-04-20 05:41 -34.15065 151.18812 7334 ft 260 kts 231°
2026-04-20 05:41 -34.15771 151.16771 8025 ft 272 kts 258°
2026-04-20 05:41 -34.15624 151.14462 8696 ft 286 kts 284°
2026-04-20 05:41 -34.14735 151.12275 9390 ft 295 kts 298°
2026-04-20 05:42 -34.13569 151.10204 10097 ft 300 kts 301°
2026-04-20 05:42 -34.12361 151.08128 10448 ft 315 kts 300°
2026-04-20 05:42 -34.11102 151.05873 10628 ft 333 kts 299°
2026-04-20 05:42 -34.09810 151.03464 10821 ft 349 kts 298°
2026-04-20 05:43 -34.08498 151.00971 11351 ft 353 kts 298°
2026-04-20 05:43 -34.07180 150.98454 11957 ft 356 kts 298°
2026-04-20 05:43 -34.05851 150.95913 12527 ft 359 kts 298°
2026-04-20 05:43 -34.04511 150.93351 13092 ft 363 kts 298°
2026-04-20 05:44 -34.03160 150.90767 13700 ft 365 kts 298°
2026-04-20 05:44 -34.01798 150.88165 14254 ft 368 kts 298°
2026-04-20 05:44 -34.00424 150.85542 14783 ft 371 kts 298°
2026-04-20 05:44 -33.99041 150.82902 15304 ft 373 kts 298°
2026-04-20 05:45 -33.97646 150.80244 15822 ft 376 kts 298°
2026-04-20 05:45 -33.96246 150.77577 16382 ft 378 kts 298°
2026-04-20 05:45 -33.94832 150.74886 16861 ft 381 kts 298°
2026-04-20 05:45 -33.93410 150.72180 17376 ft 383 kts 298°
2026-04-20 05:46 -33.91996 150.69493 17875 ft 386 kts 298°
2026-04-20 05:46 -33.90555 150.66755 18352 ft 389 kts 298°
2026-04-20 05:46 -33.89105 150.64003 18819 ft 391 kts 298°
2026-04-20 05:46 -33.87643 150.61230 19238 ft 393 kts 298°
2026-04-20 05:47 -33.86173 150.58446 19652 ft 395 kts 298°
2026-04-20 05:47 -33.84692 150.55639 20066 ft 397 kts 298°
2026-04-20 05:47 -33.83203 150.52822 20469 ft 400 kts 298°
2026-04-20 05:47 -33.81702 150.49985 20868 ft 403 kts 298°
2026-04-20 05:48 -33.80191 150.47130 21276 ft 406 kts 298°
2026-04-20 05:48 -33.78686 150.44289 21656 ft 408 kts 298°
2026-04-20 05:48 -33.77156 150.41402 22062 ft 410 kts 298°
2026-04-20 05:48 -33.75618 150.38503 22437 ft 413 kts 298°
2026-04-20 05:49 -33.74067 150.35584 22823 ft 415 kts 298°
2026-04-20 05:49 -33.72509 150.32652 23198 ft 418 kts 298°
2026-04-20 05:49 -33.71109 150.29603 23584 ft 416 kts 290°
2026-04-20 05:49 -33.70073 150.26374 23939 ft 414 kts 282°
2026-04-20 05:50 -33.69205 150.23055 24250 ft 417 kts 283°
2026-04-20 05:50 -33.68311 150.19736 24578 ft 419 kts 283°
2026-04-20 05:50 -33.67405 150.16403 24913 ft 421 kts 283°
2026-04-20 05:50 -33.66492 150.13057 25226 ft 423 kts 283°
2026-04-20 05:51 -33.65580 150.09716 25547 ft 426 kts 283°
2026-04-20 05:51 -33.64643 150.06289 25892 ft 428 kts 283°
2026-04-20 05:51 -33.63712 150.02887 26257 ft 430 kts 283°
2026-04-20 05:51 -33.62774 149.99462 26577 ft 433 kts 283°
2026-04-20 05:52 -33.61831 149.96021 26950 ft 435 kts 283°
2026-04-20 05:52 -33.60894 149.92604 27303 ft 438 kts 283°
2026-04-20 05:52 -33.59925 149.89076 27680 ft 441 kts 283°
2026-04-20 05:52 -33.58962 149.85578 28033 ft 444 kts 283°
2026-04-20 05:53 -33.57991 149.82051 28407 ft 446 kts 283°
2026-04-20 05:53 -33.57027 149.78555 28776 ft 449 kts 283°
2026-04-20 05:53 -33.56043 149.74990 29159 ft 452 kts 283°
2026-04-20 05:53 -33.55050 149.71398 29515 ft 455 kts 283°
2026-04-20 05:54 -33.54051 149.67787 29878 ft 458 kts 283°
2026-04-20 05:54 -33.53044 149.64155 30267 ft 461 kts 283°
2026-04-20 05:54 -33.52031 149.60503 30612 ft 463 kts 283°
2026-04-20 05:54 -33.51010 149.56829 30919 ft 466 kts 283°
2026-04-20 05:55 -33.49983 149.53137 31255 ft 469 kts 283°
2026-04-20 05:55 -33.48947 149.49420 31591 ft 471 kts 283°
2026-04-20 05:55 -33.47906 149.45689 31919 ft 473 kts 283°
2026-04-20 05:55 -33.46860 149.41944 32208 ft 476 kts 283°
2026-04-20 05:56 -33.45805 149.38168 32539 ft 479 kts 283°
2026-04-20 05:56 -33.44738 149.34360 32865 ft 481 kts 283°
2026-04-20 05:56 -33.43671 149.30556 33186 ft 484 kts 283°
2026-04-20 05:56 -33.42594 149.26723 33485 ft 487 kts 283°
2026-04-20 05:57 -33.41511 149.22872 33793 ft 490 kts 283°
2026-04-20 05:57 -33.40421 149.18999 34121 ft 492 kts 283°
2026-04-20 05:57 -33.39339 149.15162 34410 ft 494 kts 283°
2026-04-20 05:57 -33.38223 149.11209 34670 ft 497 kts 283°
2026-04-20 05:58 -33.37127 149.07334 35004 ft 497 kts 283°
2026-04-20 05:58 -33.36017 149.03417 35401 ft 497 kts 283°
2026-04-20 05:58 -33.34908 148.99509 35767 ft 496 kts 283°
2026-04-20 05:58 -33.33800 148.95609 36148 ft 496 kts 283°
2026-04-20 05:59 -33.31565 148.87749 36224 ft 498 kts 283°
2026-04-20 05:59 -33.29330 148.79912 36227 ft 500 kts 283°
2026-04-20 06:00 -33.27077 148.72035 36225 ft 501 kts 283°
2026-04-20 06:00 -33.24784 148.64023 36224 ft 517 kts 283°
2026-04-20 06:01 -33.22439 148.55877 36223 ft 518 kts 284°
2026-04-20 06:01 -33.20087 148.47729 36221 ft 519 kts 284°
2026-04-20 06:02 -33.17728 148.39578 36227 ft 520 kts 284°
2026-04-20 06:02 -33.15364 148.31425 36226 ft 520 kts 284°
2026-04-20 06:03 -33.12967 148.23316 36221 ft 522 kts 287°
2026-04-20 06:03 -33.10059 148.15331 36223 ft 525 kts 288°
2026-04-20 06:04 -33.07158 148.07328 36224 ft 525 kts 288°
2026-04-20 06:04 -33.04255 147.99337 36224 ft 526 kts 288°
2026-04-20 06:05 -33.01354 147.91394 36225 ft 526 kts 288°
2026-04-20 06:05 -32.98424 147.83397 36219 ft 526 kts 289°
2026-04-20 06:06 -32.95493 147.75411 36229 ft 526 kts 289°
2026-04-20 06:06 -32.92554 147.67424 36231 ft 526 kts 289°
2026-04-20 06:07 -32.89610 147.59446 36221 ft 526 kts 289°
2026-04-20 06:07 -32.86676 147.51512 36218 ft 526 kts 289°
2026-04-20 06:08 -32.83723 147.43547 36221 ft 526 kts 289°
2026-04-20 06:08 -32.80767 147.35592 36225 ft 526 kts 289°
2026-04-20 06:09 -32.77800 147.27623 36222 ft 526 kts 289°
2026-04-20 06:09 -32.74849 147.19717 36221 ft 526 kts 289°
2026-04-20 06:10 -32.71877 147.11776 36222 ft 526 kts 289°
2026-04-20 06:10 -32.68900 147.03837 36223 ft 526 kts 289°
2026-04-20 06:11 -32.65918 146.95907 36223 ft 526 kts 289°
2026-04-20 06:11 -32.62929 146.87974 36222 ft 526 kts 289°
2026-04-20 06:12 -32.59933 146.80044 36221 ft 526 kts 290°
2026-04-20 06:12 -32.56935 146.72124 36224 ft 526 kts 290°
2026-04-20 06:13 -32.53934 146.64214 36224 ft 526 kts 290°
2026-04-20 06:13 -32.50938 146.56306 36220 ft 526 kts 290°
2026-04-20 06:14 -32.47937 146.48448 36225 ft 527 kts 290°
2026-04-20 06:14 -32.44912 146.40547 36221 ft 526 kts 290°
2026-04-20 06:15 -32.41888 146.32654 36226 ft 526 kts 290°
2026-04-20 06:15 -32.38856 146.24756 36224 ft 527 kts 290°
2026-04-20 06:16 -32.35818 146.16861 36226 ft 527 kts 290°
2026-04-20 06:16 -32.32784 146.08991 36228 ft 526 kts 290°
2026-04-20 06:17 -32.29760 146.01168 36215 ft 526 kts 290°
2026-04-20 06:17 -32.26712 145.93299 36220 ft 526 kts 290°
2026-04-20 06:18 -32.23659 145.85437 36220 ft 526 kts 290°
2026-04-20 06:18 -32.20597 145.77568 36218 ft 526 kts 290°
2026-04-20 06:19 -32.18054 145.71045 36213 ft 526 kts 291°
2026-04-20 06:19 -32.15411 145.64281 36215 ft 526 kts 291°
2026-04-20 06:20 -32.11844 145.55172 36210 ft 526 kts 291°
2026-04-20 06:20 -32.09285 145.48652 36209 ft 525 kts 291°
2026-04-20 06:21 -32.06215 145.40844 36212 ft 525 kts 291°
2026-04-20 06:21 -32.03134 145.33017 36211 ft 525 kts 291°
2026-04-20 06:22 -32.00044 145.25211 36211 ft 525 kts 291°
2026-04-20 06:22 -31.96966 145.17465 36211 ft 525 kts 291°
2026-04-20 06:23 -31.93873 145.09681 36204 ft 525 kts 291°
2026-04-20 06:23 -31.90775 145.01905 36209 ft 524 kts 291°
2026-04-20 06:24 -31.87673 144.94136 36210 ft 524 kts 291°
2026-04-20 06:24 -31.84563 144.86363 36210 ft 524 kts 291°
2026-04-20 06:25 -31.81474 144.78662 36211 ft 523 kts 291°
2026-04-20 06:25 -31.78363 144.70921 36214 ft 523 kts 291°
2026-04-20 06:26 -31.75667 144.64224 36214 ft 524 kts 291°
2026-04-20 06:26 -31.72547 144.56494 36212 ft 523 kts 291°
2026-04-20 06:27 -31.69428 144.48782 36215 ft 523 kts 291°
2026-04-20 06:27 -31.66324 144.41124 36213 ft 522 kts 291°
2026-04-20 06:28 -31.63197 144.33425 36215 ft 522 kts 291°
2026-04-20 06:28 -31.60070 144.25743 36214 ft 521 kts 292°
2026-04-20 06:29 -31.56940 144.18069 36214 ft 521 kts 292°
2026-04-20 06:29 -31.53806 144.10404 36217 ft 521 kts 292°
2026-04-20 06:30 -31.50671 144.02750 36215 ft 520 kts 292°
2026-04-20 06:30 -31.47553 143.95154 36216 ft 520 kts 292°
2026-04-20 06:31 -31.44415 143.87527 36217 ft 519 kts 292°
2026-04-20 06:31 -31.41274 143.79908 36212 ft 519 kts 292°
2026-04-20 06:32 -31.38129 143.72297 36213 ft 519 kts 292°
2026-04-20 06:32 -31.34985 143.64702 36222 ft 519 kts 292°
2026-04-20 06:33 -31.31831 143.57099 36219 ft 519 kts 292°
2026-04-20 06:33 -31.28676 143.49509 36215 ft 518 kts 292°
2026-04-20 06:34 -31.25541 143.41983 36215 ft 518 kts 292°
2026-04-20 06:35 -31.20800 143.30634 36224 ft 518 kts 292°
2026-04-20 06:35 -31.17639 143.23085 36226 ft 517 kts 292°
2026-04-20 06:36 -31.14474 143.15542 36223 ft 517 kts 292°
2026-04-20 06:36 -31.11304 143.08003 36217 ft 516 kts 292°
2026-04-20 06:37 -31.08132 143.00473 36219 ft 516 kts 292°
2026-04-20 06:37 -31.04961 142.92964 36218 ft 516 kts 292°
2026-04-20 06:38 -31.01808 142.85509 36221 ft 516 kts 292°
2026-04-20 06:38 -30.98630 142.78004 36223 ft 516 kts 293°
2026-04-20 06:39 -30.95447 142.70523 36222 ft 515 kts 293°
2026-04-20 06:39 -30.92263 142.63045 36222 ft 515 kts 293°
2026-04-20 06:40 -30.89076 142.55573 36220 ft 515 kts 293°
2026-04-20 06:40 -30.85887 142.48112 36220 ft 514 kts 293°
2026-04-20 06:41 -30.82693 142.40656 36219 ft 514 kts 293°
2026-04-20 06:41 -30.79503 142.33222 36219 ft 513 kts 293°
2026-04-20 06:42 -30.76307 142.25790 36216 ft 513 kts 293°
2026-04-20 06:42 -30.73134 142.18424 36214 ft 513 kts 293°
2026-04-20 06:43 -30.69934 142.11014 36215 ft 512 kts 293°
2026-04-20 06:43 -30.66733 142.03613 36213 ft 512 kts 293°
2026-04-20 06:44 -30.63532 141.96227 36212 ft 512 kts 293°
2026-04-20 06:44 -30.60321 141.88834 36208 ft 512 kts 293°
2026-04-20 06:45 -30.57109 141.81451 36210 ft 511 kts 293°
2026-04-20 06:45 -30.53906 141.74105 36211 ft 510 kts 293°
2026-04-20 06:46 -30.50719 141.66808 36209 ft 510 kts 293°
2026-04-20 06:46 -30.47507 141.59470 36210 ft 509 kts 293°
2026-04-20 06:47 -30.44295 141.52145 36211 ft 509 kts 293°
2026-04-20 06:47 -30.41082 141.44833 36210 ft 509 kts 293°
2026-04-20 06:48 -30.37856 141.37504 36209 ft 509 kts 293°
2026-04-20 06:48 -30.34662 141.30259 36211 ft 508 kts 293°
2026-04-20 06:49 -30.31442 141.22974 36210 ft 507 kts 293°
2026-04-20 06:49 -30.28218 141.15696 36211 ft 507 kts 293°
2026-04-20 06:50 -30.25000 141.08443 36209 ft 506 kts 293°
2026-04-20 06:50 -30.21781 141.01199 36210 ft 506 kts 293°
2026-04-20 06:51 -30.18579 140.94008 36209 ft 506 kts 293°
2026-04-20 06:51 -30.15353 140.86779 36215 ft 505 kts 293°
2026-04-20 06:52 -30.12128 140.79565 36220 ft 505 kts 293°
2026-04-20 06:52 -30.08906 140.72371 36208 ft 504 kts 293°
2026-04-20 06:53 -30.05679 140.65178 36213 ft 504 kts 293°
2026-04-20 06:53 -30.02455 140.58006 36214 ft 503 kts 293°
2026-04-20 06:54 -29.99250 140.50890 36208 ft 503 kts 293°
2026-04-20 06:54 -29.96019 140.43730 36212 ft 502 kts 293°
2026-04-20 06:55 -29.92787 140.36580 36210 ft 502 kts 293°
2026-04-20 06:55 -29.89554 140.29439 36209 ft 501 kts 293°
2026-04-20 06:56 -29.86324 140.22320 36208 ft 501 kts 293°
2026-04-20 06:56 -29.83115 140.15261 36210 ft 500 kts 293°
2026-04-20 06:57 -29.79885 140.08168 36211 ft 500 kts 293°
2026-04-20 06:57 -29.76655 140.01087 36212 ft 499 kts 292°
2026-04-20 06:58 -29.73423 139.94015 36211 ft 499 kts 292°
2026-04-20 06:58 -29.70193 139.86962 36211 ft 498 kts 292°
2026-04-20 06:59 -29.66961 139.79916 36214 ft 498 kts 292°
2026-04-20 06:59 -29.63726 139.72887 36212 ft 497 kts 292°
2026-04-20 07:00 -29.60937 139.66826 36207 ft 497 kts 292°
2026-04-20 07:00 -29.57703 139.59807 36209 ft 497 kts 292°
2026-04-20 07:01 -29.54489 139.52846 36210 ft 496 kts 292°
2026-04-20 07:01 -29.51246 139.45838 36209 ft 496 kts 292°
2026-04-20 07:02 -29.48004 139.38845 36209 ft 495 kts 292°
2026-04-20 07:02 -29.44764 139.31868 36207 ft 495 kts 292°
2026-04-20 07:03 -29.41525 139.24905 36208 ft 494 kts 292°
2026-04-20 07:03 -29.38306 139.17998 36209 ft 494 kts 292°
2026-04-20 07:04 -29.35064 139.11055 36207 ft 493 kts 292°
2026-04-20 07:04 -29.31824 139.04126 36205 ft 493 kts 292°
2026-04-20 07:05 -29.28580 138.97202 36211 ft 493 kts 292°
2026-04-20 07:05 -29.25338 138.90293 36205 ft 492 kts 292°
2026-04-20 07:06 -29.22089 138.83380 36204 ft 492 kts 292°
2026-04-20 07:06 -29.19388 138.77645 36199 ft 492 kts 292°
2026-04-20 07:07 -29.15614 138.69642 36202 ft 491 kts 292°
2026-04-20 07:07 -29.12367 138.62772 36201 ft 490 kts 292°
2026-04-20 07:08 -29.09666 138.57062 36199 ft 490 kts 292°
2026-04-20 07:08 -29.06413 138.50201 36197 ft 490 kts 291°
2026-04-20 07:09 -29.03166 138.43362 36198 ft 489 kts 291°
2026-04-20 07:09 -28.99913 138.36523 36195 ft 489 kts 291°
2026-04-20 07:10 -28.96664 138.29702 36194 ft 488 kts 291°
2026-04-20 07:10 -28.93432 138.22929 36197 ft 488 kts 291°
2026-04-20 07:11 -28.90182 138.16131 36194 ft 488 kts 291°
2026-04-20 07:11 -28.86923 138.09326 36193 ft 487 kts 291°
2026-04-20 07:12 -28.83664 138.02529 36205 ft 487 kts 291°
2026-04-20 07:12 -28.80434 137.95807 36201 ft 487 kts 291°
2026-04-20 07:13 -28.77175 137.89035 36194 ft 486 kts 291°
2026-04-20 07:13 -28.73919 137.82279 36190 ft 486 kts 291°
2026-04-20 07:14 -28.70657 137.75524 36191 ft 486 kts 291°
2026-04-20 07:14 -28.67395 137.68780 36194 ft 486 kts 291°
2026-04-20 07:15 -28.64130 137.62040 36188 ft 485 kts 291°
2026-04-20 07:15 -28.60868 137.55316 36191 ft 485 kts 291°
2026-04-20 07:16 -28.57606 137.48605 36197 ft 485 kts 291°
2026-04-20 07:16 -28.54362 137.41942 36198 ft 484 kts 291°
2026-04-20 07:17 -28.51094 137.35238 36193 ft 484 kts 291°
2026-04-20 07:17 -28.47817 137.28529 36198 ft 484 kts 291°
2026-04-20 07:18 -28.44550 137.21849 36197 ft 483 kts 291°
2026-04-20 07:18 -28.41302 137.15221 36193 ft 483 kts 291°
2026-04-20 07:19 -28.38031 137.08557 36199 ft 482 kts 291°
2026-04-20 07:19 -28.34759 137.01899 36198 ft 482 kts 291°
2026-04-20 07:20 -28.31488 136.95255 36192 ft 482 kts 291°
2026-04-20 07:20 -28.28218 136.88624 36196 ft 481 kts 291°
2026-04-20 07:21 -28.24948 136.82000 36194 ft 481 kts 291°
2026-04-20 07:21 -28.21698 136.75422 36195 ft 480 kts 291°
2026-04-20 07:22 -28.18418 136.68829 36195 ft 480 kts 291°
2026-04-20 07:22 -28.15128 136.62231 36194 ft 480 kts 291°
2026-04-20 07:23 -28.11845 136.55647 36190 ft 480 kts 291°
2026-04-20 07:23 -28.08562 136.49078 36202 ft 479 kts 291°
2026-04-20 07:24 -28.05279 136.42515 36204 ft 478 kts 291°
2026-04-20 07:24 -28.02019 136.36008 36196 ft 478 kts 291°
2026-04-20 07:25 -27.98732 136.29459 36187 ft 477 kts 291°
2026-04-20 07:25 -27.95454 136.22937 36188 ft 477 kts 291°
2026-04-20 07:26 -27.92172 136.16418 36186 ft 476 kts 291°
2026-04-20 07:26 -27.88911 136.09950 36185 ft 476 kts 291°
2026-04-20 07:27 -27.85629 136.03448 36185 ft 475 kts 291°
2026-04-20 07:27 -27.82350 135.96967 36182 ft 475 kts 291°
2026-04-20 07:28 -27.79066 135.90483 36180 ft 475 kts 291°
2026-04-20 07:28 -27.75801 135.84047 36180 ft 474 kts 291°
2026-04-20 07:29 -27.72513 135.77574 36179 ft 474 kts 292°
2026-04-20 07:29 -27.69230 135.71121 36179 ft 474 kts 292°
2026-04-20 07:30 -27.65941 135.64666 36176 ft 474 kts 292°
2026-04-20 07:30 -27.62654 135.58226 36172 ft 473 kts 292°
2026-04-20 07:31 -27.59366 135.51793 36170 ft 473 kts 292°
2026-04-20 07:31 -27.56093 135.45398 36171 ft 474 kts 292°
2026-04-20 07:32 -27.52811 135.38963 36168 ft 473 kts 292°
2026-04-20 07:32 -27.49550 135.32530 36165 ft 473 kts 292°
2026-04-20 07:33 -27.46280 135.26090 36165 ft 472 kts 292°
2026-04-20 07:33 -27.43015 135.19674 36167 ft 472 kts 292°
2026-04-20 07:34 -27.39764 135.13299 36164 ft 472 kts 292°
2026-04-20 07:34 -27.36492 135.06892 36164 ft 472 kts 292°
2026-04-20 07:35 -27.31568 134.97269 36166 ft 472 kts 292°
2026-04-20 07:35 -27.28303 134.90901 36160 ft 472 kts 292°
2026-04-20 07:36 -27.25017 134.84500 36161 ft 472 kts 292°
2026-04-20 07:36 -27.21729 134.78107 36159 ft 472 kts 292°
2026-04-20 07:37 -27.18438 134.71714 36157 ft 472 kts 292°
2026-04-20 07:37 -27.15147 134.65333 36154 ft 471 kts 292°
2026-04-20 07:38 -27.11882 134.59010 36156 ft 471 kts 292°
2026-04-20 07:38 -27.08585 134.52637 36160 ft 471 kts 292°
2026-04-20 07:39 -27.05294 134.46281 36161 ft 471 kts 292°
2026-04-20 07:39 -27.01999 134.39929 36160 ft 471 kts 292°
2026-04-20 07:40 -26.98708 134.33592 36154 ft 470 kts 292°
2026-04-20 07:40 -26.95410 134.27253 36156 ft 470 kts 293°
2026-04-20 07:41 -26.92136 134.20968 36152 ft 469 kts 293°
2026-04-20 07:41 -26.88837 134.14644 36155 ft 470 kts 293°
2026-04-20 07:42 -26.85533 134.08320 36153 ft 470 kts 293°
2026-04-20 07:42 -26.82232 134.02011 36154 ft 470 kts 293°
2026-04-20 07:43 -26.78924 133.95698 36153 ft 470 kts 293°
2026-04-20 07:43 -26.75611 133.89384 36148 ft 470 kts 293°
2026-04-20 07:44 -26.72301 133.83083 36140 ft 469 kts 293°
2026-04-20 07:44 -26.69005 133.76820 36138 ft 469 kts 293°
2026-04-20 07:45 -26.65689 133.70527 36145 ft 469 kts 293°
2026-04-20 07:45 -26.62381 133.64258 36147 ft 469 kts 294°
2026-04-20 07:46 -26.59058 133.57968 36152 ft 469 kts 294°
2026-04-20 07:46 -26.55738 133.51694 36150 ft 469 kts 294°
2026-04-20 07:47 -26.52414 133.45421 36143 ft 469 kts 294°
2026-04-20 07:47 -26.49089 133.39156 36145 ft 469 kts 294°
2026-04-20 07:48 -26.45762 133.32895 36146 ft 469 kts 294°
2026-04-20 07:48 -26.42434 133.26640 36147 ft 469 kts 294°
2026-04-20 07:49 -26.39122 133.20425 36146 ft 469 kts 294°
2026-04-20 07:49 -26.35788 133.14177 36143 ft 469 kts 294°
2026-04-20 07:50 -26.32452 133.07933 36140 ft 469 kts 294°
2026-04-20 07:50 -26.29504 133.02425 36143 ft 469 kts 294°
2026-04-20 07:51 -26.26162 132.96186 36143 ft 469 kts 294°
2026-04-20 07:51 -26.22816 132.89947 36143 ft 469 kts 294°
2026-04-20 07:52 -26.19465 132.83706 36141 ft 469 kts 295°
2026-04-20 07:52 -26.16107 132.77475 36140 ft 469 kts 295°
2026-04-20 07:53 -26.12751 132.71244 36136 ft 469 kts 295°
2026-04-20 07:53 -26.09418 132.65066 36135 ft 469 kts 295°
2026-04-20 07:54 -26.06058 132.58845 36138 ft 469 kts 295°
2026-04-20 07:54 -26.02694 132.52625 36134 ft 469 kts 295°
2026-04-20 07:55 -25.99331 132.46418 36133 ft 469 kts 295°
2026-04-20 07:55 -25.95966 132.40214 36130 ft 469 kts 295°
2026-04-20 07:56 -25.92597 132.34012 36131 ft 469 kts 295°
2026-04-20 07:56 -25.89225 132.27812 36130 ft 469 kts 295°
2026-04-20 07:57 -25.86422 132.22666 36127 ft 469 kts 295°
2026-04-20 07:57 -25.83042 132.16466 36135 ft 469 kts 296°
2026-04-20 07:58 -25.79659 132.10272 36135 ft 469 kts 296°
2026-04-20 07:58 -25.75724 132.03075 36126 ft 469 kts 296°
2026-04-20 07:59 -25.72889 131.97898 36126 ft 469 kts 296°
2026-04-20 07:59 -25.69520 131.91751 36119 ft 469 kts 296°
2026-04-20 08:00 -25.66129 131.85574 36116 ft 468 kts 296°
2026-04-20 08:00 -25.62741 131.79408 36372 ft 471 kts 296°
2026-04-20 08:01 -25.61038 131.76315 36925 ft 467 kts 296°
2026-04-20 08:01 -25.59350 131.73253 37520 ft 463 kts 296°
2026-04-20 08:01 -25.57678 131.70221 37999 ft 461 kts 296°
2026-04-20 08:01 -25.56006 131.67186 38195 ft 459 kts 296°
2026-04-20 08:02 -25.52706 131.61209 38127 ft 455 kts 296°
2026-04-20 08:02 -25.49405 131.55229 38125 ft 455 kts 296°
2026-04-20 08:03 -25.46119 131.49288 38113 ft 455 kts 296°
2026-04-20 08:03 -25.42807 131.43309 38097 ft 455 kts 296°
2026-04-20 08:04 -25.39496 131.37341 38092 ft 455 kts 296°
2026-04-20 08:04 -25.36185 131.31378 38105 ft 455 kts 296°
2026-04-20 08:05 -25.32868 131.25414 38102 ft 454 kts 296°
2026-04-20 08:05 -25.29551 131.19457 38111 ft 455 kts 297°
2026-04-20 08:06 -25.26253 131.13540 38099 ft 455 kts 297°
2026-04-20 08:06 -25.22927 131.07582 38104 ft 455 kts 297°
2026-04-20 08:07 -25.19604 131.01637 38098 ft 454 kts 297°
2026-04-20 08:07 -25.16053 130.95839 38091 ft 459 kts 303°
2026-04-20 08:08 -25.11922 130.90428 38089 ft 461 kts 304°
2026-04-20 08:08 -25.07836 130.85040 38095 ft 460 kts 304°
2026-04-20 08:09 -25.03723 130.79618 38093 ft 461 kts 304°
2026-04-20 08:09 -24.99597 130.74194 38089 ft 461 kts 304°
2026-04-20 08:10 -24.95474 130.68779 38088 ft 461 kts 304°
2026-04-20 08:10 -24.91343 130.63361 38088 ft 461 kts 304°
2026-04-20 08:11 -24.87237 130.57982 38084 ft 462 kts 305°
2026-04-20 08:11 -24.83098 130.52566 38085 ft 462 kts 305°
2026-04-20 08:12 -24.78953 130.47149 38082 ft 462 kts 305°
2026-04-20 08:12 -24.74802 130.41730 38080 ft 463 kts 305°
2026-04-20 08:13 -24.70653 130.36319 38079 ft 463 kts 305°
2026-04-20 08:13 -24.66498 130.30906 38078 ft 463 kts 305°
2026-04-20 08:14 -24.62358 130.25520 38075 ft 463 kts 305°
2026-04-20 08:14 -24.58194 130.20109 38077 ft 463 kts 305°
2026-04-20 08:15 -24.54029 130.14701 38074 ft 463 kts 305°
2026-04-20 08:15 -24.49862 130.09298 38070 ft 464 kts 306°
2026-04-20 08:16 -24.45685 130.03888 38068 ft 464 kts 306°
2026-04-20 08:16 -24.41534 129.98517 38062 ft 464 kts 306°
2026-04-20 08:17 -24.37353 129.93113 38065 ft 464 kts 306°
2026-04-20 08:17 -24.33169 129.87713 38061 ft 464 kts 306°
2026-04-20 08:18 -24.28985 129.82318 38062 ft 464 kts 306°
2026-04-20 08:18 -24.24799 129.76926 38056 ft 464 kts 306°
2026-04-20 08:19 -24.20633 129.71566 38050 ft 465 kts 306°
2026-04-20 08:19 -24.16439 129.66175 38050 ft 465 kts 306°
2026-04-20 08:20 -24.12239 129.60784 38047 ft 465 kts 306°
2026-04-20 08:20 -24.08030 129.55386 38039 ft 465 kts 306°
2026-04-20 08:21 -24.03826 129.50001 38037 ft 465 kts 306°
2026-04-20 08:21 -23.99612 129.44609 38060 ft 466 kts 306°
2026-04-20 08:22 -23.95427 129.39260 38056 ft 466 kts 306°
2026-04-20 08:22 -23.91213 129.33881 38049 ft 466 kts 306°
2026-04-20 08:23 -23.86992 129.28497 38019 ft 466 kts 306°
2026-04-20 08:23 -23.82767 129.23114 38034 ft 466 kts 306°
2026-04-20 08:24 -23.78539 129.17734 38034 ft 466 kts 306°
2026-04-20 08:24 -23.74334 129.12388 38031 ft 467 kts 306°
2026-04-20 08:25 -23.70096 129.07008 38029 ft 467 kts 306°
2026-04-20 08:25 -23.65852 129.01624 38027 ft 467 kts 307°
2026-04-20 08:26 -23.61612 128.96252 38026 ft 467 kts 307°
2026-04-20 08:26 -23.57394 128.90913 38026 ft 468 kts 307°
2026-04-20 08:27 -23.53144 128.85540 38022 ft 468 kts 307°
2026-04-20 08:27 -23.48885 128.80162 38025 ft 468 kts 307°
2026-04-20 08:28 -23.44627 128.74790 38022 ft 468 kts 307°
2026-04-20 08:28 -23.40360 128.69413 38025 ft 469 kts 307°
2026-04-20 08:29 -23.36094 128.64043 38023 ft 469 kts 307°
2026-04-20 08:29 -23.31825 128.58674 38023 ft 469 kts 307°
2026-04-20 08:30 -23.27579 128.53340 38019 ft 469 kts 307°
2026-04-20 08:30 -23.23298 128.47965 38024 ft 470 kts 307°
2026-04-20 08:31 -23.19027 128.42617 38022 ft 470 kts 307°
2026-04-20 08:31 -23.14734 128.37256 38026 ft 470 kts 307°
2026-04-20 08:32 -23.10443 128.31896 38021 ft 470 kts 307°
2026-04-20 08:32 -23.06143 128.26529 38021 ft 470 kts 307°
2026-04-20 08:33 -22.99721 128.18525 38016 ft 471 kts 307°
2026-04-20 08:34 -22.95413 128.13163 38015 ft 471 kts 307°
2026-04-20 08:34 -22.91103 128.07806 38018 ft 471 kts 307°
2026-04-20 08:35 -22.86791 128.02450 38018 ft 471 kts 307°
2026-04-20 08:35 -22.82473 127.97093 38018 ft 472 kts 307°
2026-04-20 08:36 -22.78156 127.91744 38015 ft 471 kts 307°
2026-04-20 08:36 -22.73856 127.86421 38013 ft 472 kts 307°
2026-04-20 08:37 -22.69535 127.81076 38015 ft 472 kts 307°
2026-04-20 08:37 -22.65207 127.75730 38006 ft 472 kts 307°
2026-04-20 08:38 -22.60870 127.70378 38009 ft 472 kts 307°
2026-04-20 08:38 -22.56526 127.65022 38008 ft 473 kts 307°
2026-04-20 08:39 -22.52180 127.59670 38006 ft 473 kts 308°
2026-04-20 08:39 -22.47863 127.54359 38006 ft 473 kts 308°
2026-04-20 08:40 -22.43537 127.49042 38005 ft 473 kts 308°
2026-04-20 08:40 -22.39182 127.43695 38000 ft 473 kts 308°
2026-04-20 08:41 -22.34834 127.38362 38001 ft 473 kts 308°
2026-04-20 08:41 -22.30482 127.33031 37998 ft 473 kts 308°
2026-04-20 08:42 -22.26124 127.27696 37997 ft 473 kts 308°
2026-04-20 08:42 -22.21787 127.22394 37998 ft 473 kts 308°
2026-04-20 08:43 -22.17427 127.17068 37994 ft 474 kts 308°
2026-04-20 08:43 -22.13061 127.11740 37996 ft 473 kts 308°
2026-04-20 08:44 -22.08692 127.06415 37992 ft 473 kts 308°
2026-04-20 08:44 -22.04320 127.01091 37989 ft 474 kts 308°
2026-04-20 08:45 -22.00688 126.96672 37994 ft 474 kts 308°
2026-04-20 08:45 -21.96316 126.91358 37992 ft 474 kts 308°
2026-04-20 08:46 -21.91235 126.85189 37989 ft 474 kts 308°
2026-04-20 08:46 -21.86861 126.79884 37986 ft 474 kts 308°
2026-04-20 08:47 -21.83192 126.75437 37986 ft 474 kts 308°
2026-04-20 08:47 -21.78807 126.70128 37990 ft 474 kts 308°
2026-04-20 08:48 -21.74447 126.64855 37985 ft 474 kts 308°
2026-04-20 08:48 -21.70061 126.59556 37985 ft 474 kts 308°
2026-04-20 08:49 -21.65667 126.54253 37983 ft 474 kts 309°
2026-04-20 08:49 -21.61270 126.48950 37983 ft 475 kts 309°
2026-04-20 08:50 -21.56876 126.43656 37978 ft 475 kts 309°
2026-04-20 08:50 -21.52474 126.38359 37976 ft 475 kts 309°
2026-04-20 08:51 -21.48093 126.33093 37974 ft 475 kts 309°
2026-04-20 08:51 -21.43680 126.27792 37974 ft 475 kts 309°
2026-04-20 08:52 -21.39271 126.22501 37970 ft 475 kts 309°
2026-04-20 08:52 -21.34858 126.17211 37971 ft 476 kts 309°
2026-04-20 08:53 -21.30443 126.11923 37971 ft 476 kts 309°
2026-04-20 08:53 -21.26025 126.06638 37967 ft 476 kts 309°
2026-04-20 08:54 -21.21601 126.01351 37959 ft 476 kts 309°
2026-04-20 08:54 -21.17174 125.96064 37965 ft 477 kts 309°
2026-04-20 08:55 -21.12738 125.90773 37959 ft 477 kts 309°
2026-04-20 08:55 -21.08324 125.85512 37961 ft 477 kts 309°
2026-04-20 08:56 -21.03878 125.80218 37958 ft 477 kts 309°
2026-04-20 08:56 -20.99434 125.74932 37958 ft 477 kts 309°
2026-04-20 08:57 -20.94991 125.69649 37954 ft 477 kts 309°
2026-04-20 08:57 -20.90545 125.64367 37954 ft 478 kts 309°
2026-04-20 08:58 -20.86128 125.59108 37951 ft 478 kts 309°
2026-04-20 08:58 -20.81688 125.53817 37949 ft 478 kts 309°
2026-04-20 08:59 -20.77245 125.48526 37950 ft 478 kts 309°
2026-04-20 08:59 -20.72797 125.43238 37951 ft 478 kts 309°
2026-04-20 09:00 -20.68370 125.37980 37947 ft 478 kts 309°
2026-04-20 09:00 -20.63917 125.32696 37946 ft 479 kts 309°
2026-04-20 09:01 -20.59455 125.27406 37945 ft 479 kts 309°
2026-04-20 09:01 -20.54996 125.22125 37944 ft 479 kts 309°
2026-04-20 09:02 -20.50522 125.16832 37946 ft 479 kts 309°
2026-04-20 09:02 -20.46057 125.11554 37947 ft 479 kts 309°
2026-04-20 09:03 -20.41614 125.06307 37943 ft 479 kts 309°
2026-04-20 09:03 -20.37145 125.01034 37941 ft 480 kts 309°
2026-04-20 09:04 -20.33265 124.96460 37937 ft 480 kts 309°
2026-04-20 09:04 -20.28785 124.91183 37936 ft 480 kts 309°
2026-04-20 09:05 -20.24306 124.85912 37938 ft 480 kts 309°
2026-04-20 09:05 -20.19823 124.80642 37940 ft 480 kts 309°
2026-04-20 09:06 -20.15336 124.75372 37935 ft 480 kts 310°
2026-04-20 09:06 -20.10866 124.70126 37933 ft 480 kts 310°
2026-04-20 09:07 -20.06373 124.64859 37936 ft 481 kts 310°
2026-04-20 09:07 -20.01868 124.59582 37931 ft 481 kts 310°
2026-04-20 09:08 -19.97395 124.54348 37927 ft 481 kts 310°
2026-04-20 09:08 -19.92883 124.49073 37926 ft 481 kts 310°
2026-04-20 09:09 -19.88375 124.43807 37927 ft 481 kts 310°
2026-04-20 09:09 -19.83871 124.38551 37925 ft 481 kts 310°
2026-04-20 09:10 -19.79365 124.33296 37921 ft 481 kts 310°
2026-04-20 09:10 -19.74876 124.28067 37921 ft 481 kts 310°
2026-04-20 09:11 -19.70365 124.22817 37917 ft 481 kts 310°
2026-04-20 09:11 -19.65840 124.17555 37917 ft 482 kts 310°
2026-04-20 09:12 -19.61321 124.12305 37920 ft 482 kts 310°
2026-04-20 09:12 -19.56802 124.07060 37916 ft 482 kts 310°
2026-04-20 09:13 -19.52278 124.01813 37915 ft 482 kts 310°
2026-04-20 09:13 -19.47746 123.96563 37915 ft 482 kts 310°
2026-04-20 09:14 -19.43218 123.91321 37911 ft 482 kts 310°
2026-04-20 09:14 -19.38681 123.86074 37912 ft 482 kts 310°
2026-04-20 09:15 -19.34172 123.80863 37912 ft 483 kts 310°
2026-04-20 09:15 -19.29631 123.75619 37908 ft 483 kts 310°
2026-04-20 09:16 -19.25713 123.71099 37913 ft 483 kts 310°
2026-04-20 09:16 -19.21172 123.65866 37911 ft 482 kts 310°
2026-04-20 09:17 -19.16623 123.60627 37908 ft 483 kts 311°
2026-04-20 09:17 -19.12073 123.55392 37908 ft 483 kts 311°
2026-04-20 09:18 -19.07556 123.50199 37921 ft 482 kts 311°
2026-04-20 09:18 -19.03013 123.44981 37928 ft 483 kts 311°
2026-04-20 09:19 -18.98470 123.39767 37905 ft 481 kts 311°
2026-04-20 09:19 -18.93928 123.34557 37892 ft 481 kts 311°
2026-04-20 09:20 -18.89371 123.29369 37894 ft 481 kts 311°
2026-04-20 09:20 -18.84780 123.24215 37911 ft 481 kts 311°
2026-04-20 09:21 -18.80224 123.19094 37921 ft 482 kts 311°
2026-04-20 09:21 -18.75637 123.13937 37912 ft 481 kts 311°
2026-04-20 09:22 -18.71055 123.08787 37885 ft 480 kts 311°
2026-04-20 09:22 -18.66479 123.03649 37890 ft 481 kts 312°
2026-04-20 09:23 -18.61925 122.98540 37903 ft 480 kts 312°
2026-04-20 09:23 -18.57361 122.93425 37896 ft 478 kts 312°
2026-04-20 09:24 -18.52785 122.88300 37891 ft 480 kts 312°
2026-04-20 09:24 -18.48202 122.83172 37887 ft 481 kts 312°
2026-04-20 09:25 -18.43617 122.78045 37894 ft 481 kts 312°
2026-04-20 09:25 -18.39025 122.72915 37890 ft 481 kts 312°
2026-04-20 09:26 -18.34455 122.67815 37891 ft 482 kts 312°
2026-04-20 09:26 -18.29849 122.62678 37877 ft 482 kts 312°
2026-04-20 09:27 -18.25243 122.57545 37880 ft 482 kts 312°
2026-04-20 09:27 -18.20631 122.52410 37879 ft 482 kts 312°
2026-04-20 09:28 -18.16050 122.47313 37886 ft 482 kts 312°
2026-04-20 09:28 -18.11435 122.42183 37889 ft 482 kts 312°
2026-04-20 09:29 -18.06817 122.37054 37888 ft 482 kts 313°
2026-04-20 09:29 -18.02199 122.31929 37887 ft 482 kts 313°
2026-04-20 09:30 -17.97581 122.26807 37879 ft 483 kts 312°
2026-04-20 09:30 -17.93502 122.21218 37887 ft 482 kts 301°
2026-04-20 09:31 -17.90295 122.15037 37876 ft 482 kts 298°
2026-04-20 09:31 -17.87142 122.08869 37891 ft 482 kts 298°
2026-04-20 09:32 -17.84748 122.04191 37889 ft 482 kts 298°
2026-04-20 09:32 -17.81577 121.97992 37890 ft 482 kts 298°
2026-04-20 09:33 -17.78406 121.91795 37893 ft 482 kts 298°
2026-04-20 09:33 -17.75232 121.85601 37903 ft 482 kts 298°
2026-04-20 09:34 -17.72054 121.79408 37899 ft 482 kts 298°
2026-04-20 09:34 -17.67818 121.71161 37904 ft 482 kts 298°
2026-04-20 09:35 -17.64655 121.65011 37902 ft 482 kts 298°
2026-04-20 09:35 -17.61470 121.58823 37904 ft 482 kts 298°
2026-04-20 09:36 -17.58287 121.52645 37902 ft 482 kts 298°
2026-04-20 09:36 -17.55099 121.46463 37900 ft 482 kts 298°
2026-04-20 09:37 -17.51907 121.40279 37897 ft 482 kts 298°
2026-04-20 09:37 -17.48715 121.34102 37902 ft 482 kts 299°
2026-04-20 09:38 -17.45515 121.27914 37905 ft 483 kts 299°
2026-04-20 09:38 -17.42314 121.21731 37900 ft 483 kts 299°
2026-04-20 09:39 -17.39126 121.15578 37902 ft 483 kts 299°
2026-04-20 09:39 -17.35914 121.09385 37901 ft 483 kts 299°
2026-04-20 09:40 -17.32705 121.03205 37902 ft 483 kts 299°
2026-04-20 09:40 -17.29492 120.97020 37894 ft 483 kts 299°
2026-04-20 09:41 -17.26278 120.90842 37902 ft 483 kts 299°
2026-04-20 09:41 -17.23059 120.84660 37902 ft 484 kts 299°
2026-04-20 09:42 -17.19837 120.78476 37902 ft 484 kts 299°
2026-04-20 09:42 -17.16633 120.72333 37900 ft 484 kts 299°
2026-04-20 09:43 -17.13407 120.66153 37897 ft 484 kts 299°
2026-04-20 09:43 -17.10178 120.59974 37892 ft 484 kts 299°
2026-04-20 09:44 -17.06942 120.53786 37899 ft 484 kts 299°
2026-04-20 09:44 -17.03707 120.47607 37900 ft 484 kts 299°
2026-04-20 09:45 -17.00489 120.41466 37893 ft 485 kts 299°
2026-04-20 09:45 -16.97250 120.35292 37896 ft 485 kts 299°
2026-04-20 09:46 -16.94006 120.29111 37898 ft 485 kts 299°
2026-04-20 09:46 -16.90755 120.22924 37897 ft 485 kts 299°
2026-04-20 09:47 -16.87506 120.16747 37897 ft 485 kts 299°
2026-04-20 09:47 -16.84256 120.10573 37893 ft 485 kts 299°
2026-04-20 09:48 -16.81005 120.04402 37895 ft 485 kts 299°
2026-04-20 09:48 -16.77768 119.98265 37897 ft 485 kts 299°
2026-04-20 09:49 -16.74512 119.92096 37898 ft 486 kts 299°
2026-04-20 09:49 -16.71252 119.85926 37898 ft 486 kts 299°
2026-04-20 09:50 -16.67987 119.79751 37890 ft 486 kts 299°
2026-04-20 09:50 -16.64719 119.73576 37896 ft 486 kts 299°
2026-04-20 09:51 -16.61448 119.67402 37896 ft 486 kts 299°
2026-04-20 09:51 -16.58176 119.61232 37888 ft 486 kts 300°
2026-04-20 09:52 -16.54928 119.55111 37894 ft 486 kts 300°
2026-04-20 09:52 -16.51650 119.48940 37896 ft 486 kts 300°
2026-04-20 09:53 -16.48373 119.42776 37896 ft 486 kts 300°
2026-04-20 09:53 -16.45092 119.36610 37895 ft 486 kts 300°
2026-04-20 09:54 -16.41807 119.30443 37891 ft 487 kts 300°
2026-04-20 09:54 -16.38517 119.24270 37894 ft 487 kts 300°
2026-04-20 09:55 -16.35220 119.18091 37899 ft 488 kts 300°
2026-04-20 09:55 -16.31939 119.11947 37888 ft 488 kts 300°
2026-04-20 09:56 -16.28635 119.05766 37890 ft 488 kts 300°
2026-04-20 09:56 -16.25332 118.99592 37891 ft 488 kts 300°
2026-04-20 09:57 -16.22025 118.93414 37893 ft 488 kts 300°
2026-04-20 09:57 -16.18715 118.87237 37892 ft 489 kts 300°
2026-04-20 09:58 -16.15401 118.81059 37892 ft 489 kts 300°
2026-04-20 09:58 -16.12103 118.74916 37887 ft 489 kts 300°
2026-04-20 09:59 -16.08783 118.68737 37894 ft 490 kts 300°
2026-04-20 09:59 -16.05456 118.62549 37891 ft 490 kts 300°
2026-04-20 10:00 -16.02124 118.56359 37891 ft 490 kts 300°
2026-04-20 10:00 -15.98790 118.50170 37891 ft 490 kts 300°
2026-04-20 10:01 -15.95454 118.43982 37890 ft 490 kts 300°
2026-04-20 10:01 -15.92139 118.37839 37890 ft 490 kts 300°
2026-04-20 10:02 -15.88798 118.31653 37894 ft 490 kts 300°
2026-04-20 10:02 -15.85462 118.25480 37888 ft 490 kts 300°
2026-04-20 10:03 -15.82115 118.19295 37892 ft 490 kts 300°
2026-04-20 10:03 -15.78773 118.13122 37890 ft 490 kts 300°
2026-04-20 10:04 -15.75437 118.06967 37892 ft 489 kts 300°
2026-04-20 10:04 -15.72119 118.00849 37894 ft 489 kts 300°
2026-04-20 10:05 -15.68775 117.94689 37895 ft 489 kts 300°
2026-04-20 10:05 -15.65428 117.88528 37886 ft 490 kts 300°
2026-04-20 10:06 -15.62081 117.82373 37892 ft 490 kts 300°
2026-04-20 10:06 -15.58733 117.76221 37897 ft 490 kts 300°
2026-04-20 10:07 -15.55382 117.70069 37887 ft 490 kts 300°
2026-04-20 10:07 -15.52027 117.63915 37891 ft 490 kts 300°
2026-04-20 10:08 -15.48670 117.57761 37890 ft 490 kts 301°
2026-04-20 10:08 -15.45331 117.51647 37884 ft 490 kts 301°
2026-04-20 10:09 -15.41972 117.45500 37892 ft 490 kts 301°
2026-04-20 10:09 -15.38604 117.39343 37889 ft 491 kts 301°
2026-04-20 10:10 -15.35253 117.33221 37888 ft 491 kts 301°
2026-04-20 10:10 -15.31877 117.27058 37890 ft 491 kts 301°
2026-04-20 10:11 -15.28501 117.20900 37893 ft 491 kts 301°
2026-04-20 10:11 -15.25153 117.14794 37890 ft 491 kts 301°
2026-04-20 10:12 -15.21777 117.08644 37890 ft 491 kts 301°
2026-04-20 10:12 -15.18402 117.02499 37889 ft 491 kts 301°
2026-04-20 10:13 -15.15019 116.96353 37889 ft 490 kts 301°
2026-04-20 10:13 -15.11646 116.90224 37894 ft 490 kts 301°
2026-04-20 10:14 -15.08290 116.84126 37891 ft 490 kts 301°
2026-04-20 10:14 -15.04910 116.77990 37889 ft 490 kts 301°
2026-04-20 10:15 -15.01528 116.71855 37890 ft 490 kts 301°
2026-04-20 10:15 -14.98144 116.65723 37890 ft 491 kts 301°
2026-04-20 10:16 -14.94753 116.59582 37888 ft 491 kts 301°
2026-04-20 10:16 -14.91386 116.53490 37890 ft 491 kts 301°
2026-04-20 10:17 -14.87993 116.47355 37890 ft 492 kts 301°
2026-04-20 10:17 -14.84595 116.41216 37889 ft 492 kts 301°
2026-04-20 10:18 -14.81197 116.35083 37889 ft 492 kts 301°
2026-04-20 10:18 -14.77790 116.28937 37889 ft 492 kts 301°
2026-04-20 10:19 -14.74382 116.22795 37890 ft 492 kts 301°
2026-04-20 10:19 -14.70990 116.16686 37893 ft 492 kts 301°
2026-04-20 10:20 -14.67580 116.10550 37892 ft 492 kts 301°
2026-04-20 10:20 -14.64165 116.04409 37890 ft 492 kts 301°
2026-04-20 10:21 -14.60749 115.98273 37892 ft 493 kts 301°
2026-04-20 10:21 -14.57331 115.92137 37886 ft 493 kts 301°
2026-04-20 10:22 -14.53933 115.86041 37892 ft 493 kts 302°
2026-04-20 10:22 -14.50508 115.79901 37895 ft 493 kts 302°
2026-04-20 10:23 -14.47661 115.74802 37891 ft 493 kts 302°
2026-04-20 10:23 -14.44225 115.68653 37892 ft 494 kts 302°
2026-04-20 10:24 -14.40790 115.62508 37892 ft 494 kts 302°
2026-04-20 10:24 -14.37369 115.56395 37890 ft 495 kts 302°
2026-04-20 10:25 -14.33923 115.50241 37894 ft 495 kts 302°
2026-04-20 10:25 -14.30475 115.44088 37897 ft 495 kts 302°
2026-04-20 10:26 -14.27015 115.37919 37895 ft 495 kts 302°
2026-04-20 10:26 -14.23587 115.31810 37895 ft 496 kts 302°
2026-04-20 10:27 -14.20128 115.25652 37895 ft 496 kts 302°
2026-04-20 10:27 -14.16667 115.19496 37896 ft 497 kts 302°
2026-04-20 10:28 -14.13202 115.13333 37892 ft 497 kts 302°
2026-04-20 10:28 -14.09725 115.07166 37895 ft 497 kts 302°
2026-04-20 10:29 -14.06252 115.01005 37895 ft 497 kts 302°
2026-04-20 10:29 -14.02777 114.94840 37896 ft 498 kts 302°
2026-04-20 10:30 -13.99317 114.88705 37896 ft 498 kts 302°
2026-04-20 10:30 -13.95831 114.82531 37894 ft 498 kts 302°
2026-04-20 10:31 -13.92346 114.76365 37895 ft 498 kts 302°
2026-04-20 10:31 -13.88858 114.70199 37898 ft 499 kts 302°
2026-04-20 10:32 -13.85359 114.64018 37897 ft 499 kts 302°
2026-04-20 10:32 -13.81880 114.57877 37897 ft 500 kts 302°
2026-04-20 10:33 -13.78394 114.51727 37895 ft 499 kts 302°
2026-04-20 10:33 -13.74887 114.45545 37893 ft 500 kts 302°
2026-04-20 10:34 -13.71377 114.39363 37893 ft 500 kts 302°
2026-04-20 10:35 -13.66103 114.30080 37903 ft 501 kts 302°
2026-04-20 10:35 -13.62579 114.23885 37894 ft 502 kts 302°
2026-04-20 10:36 -13.59054 114.17690 37897 ft 502 kts 302°
2026-04-20 10:36 -13.55544 114.11528 37900 ft 502 kts 302°
2026-04-20 10:37 -13.52010 114.05328 37898 ft 503 kts 302°
2026-04-20 10:37 -13.48468 113.99119 37893 ft 503 kts 302°
2026-04-20 10:38 -13.44927 113.92915 37895 ft 504 kts 302°
2026-04-20 10:38 -13.41380 113.86707 37897 ft 504 kts 302°
2026-04-20 10:39 -13.37828 113.80493 37895 ft 504 kts 302°
2026-04-20 10:39 -13.34273 113.74279 37895 ft 505 kts 302°
2026-04-20 10:40 -13.30708 113.68051 37901 ft 506 kts 302°
2026-04-20 10:40 -13.27161 113.61859 37894 ft 506 kts 302°
2026-04-20 10:41 -13.23591 113.55633 37899 ft 506 kts 302°
2026-04-20 10:41 -13.20011 113.49393 37896 ft 507 kts 302°
2026-04-20 10:42 -13.16451 113.43192 37888 ft 507 kts 302°
2026-04-20 10:42 -13.12871 113.36960 37899 ft 508 kts 302°
2026-04-20 10:43 -13.09287 113.30727 37897 ft 508 kts 302°
2026-04-20 10:43 -13.05690 113.24475 37896 ft 508 kts 302°
2026-04-20 10:44 -13.02091 113.18223 37893 ft 509 kts 302°
2026-04-20 10:44 -12.98486 113.11967 37897 ft 509 kts 302°
2026-04-20 10:45 -12.94880 113.05713 37889 ft 510 kts 302°
2026-04-20 10:45 -12.91270 112.99455 37890 ft 510 kts 302°
2026-04-20 10:46 -12.87675 112.93229 37894 ft 510 kts 302°
2026-04-20 10:46 -12.84051 112.86958 37885 ft 511 kts 302°
2026-04-20 10:47 -12.80420 112.80678 37891 ft 512 kts 302°
2026-04-20 10:47 -12.76790 112.74404 37894 ft 512 kts 302°
2026-04-20 10:48 -12.73153 112.68121 37894 ft 513 kts 302°
2026-04-20 10:48 -12.69514 112.61840 37898 ft 513 kts 302°
2026-04-20 10:49 -12.65869 112.55555 37894 ft 514 kts 302°
2026-04-20 10:49 -12.62221 112.49267 37896 ft 514 kts 302°
2026-04-20 10:50 -12.58586 112.43007 37888 ft 514 kts 302°
2026-04-20 10:50 -12.54924 112.36704 37884 ft 514 kts 302°
2026-04-20 10:51 -12.51257 112.30398 37888 ft 516 kts 302°
2026-04-20 10:51 -12.47587 112.24089 37886 ft 516 kts 302°
2026-04-20 10:52 -12.43910 112.17771 37889 ft 517 kts 302°
2026-04-20 10:52 -12.40232 112.11458 37890 ft 516 kts 302°
2026-04-20 10:53 -12.36549 112.05141 37890 ft 517 kts 302°
2026-04-20 10:53 -12.32860 111.98818 37889 ft 518 kts 302°
2026-04-20 10:54 -12.29162 111.92483 37886 ft 519 kts 302°
2026-04-20 10:54 -12.25455 111.86137 37892 ft 519 kts 302°
2026-04-20 10:55 -12.21766 111.79825 37875 ft 519 kts 302°
2026-04-20 10:55 -12.19933 111.76690 37885 ft 508 kts 302°
2026-04-20 10:55 -12.18140 111.73624 37890 ft 499 kts 302°
2026-04-20 10:56 -12.14586 111.67553 37890 ft 499 kts 302°
2026-04-20 10:56 -12.11018 111.61463 37889 ft 499 kts 302°
2026-04-20 10:57 -12.07446 111.55367 37889 ft 499 kts 302°
2026-04-20 10:57 -12.03873 111.49273 37891 ft 500 kts 302°
2026-04-20 10:58 -11.99844 111.43516 37888 ft 498 kts 311°
2026-04-20 10:58 -11.94961 111.38567 37888 ft 498 kts 321°
2026-04-20 10:59 -11.89530 111.34158 38221 ft 501 kts 322°
2026-04-20 10:59 -11.86814 111.31941 38689 ft 499 kts 322°
2026-04-20 10:59 -11.84101 111.29725 39106 ft 497 kts 321°
2026-04-20 10:59 -11.81401 111.27522 39505 ft 496 kts 321°
2026-04-20 11:00 -11.78699 111.25320 39806 ft 498 kts 321°
2026-04-20 11:00 -11.73302 111.20928 39881 ft 491 kts 321°
2026-04-20 11:01 -11.67947 111.16573 39886 ft 493 kts 321°
2026-04-20 11:01 -11.62579 111.12209 39893 ft 494 kts 321°
2026-04-20 11:02 -11.57208 111.07846 39890 ft 493 kts 321°
2026-04-20 11:02 -11.51835 111.03483 39887 ft 494 kts 321°
2026-04-20 11:03 -11.46494 110.99148 39887 ft 493 kts 321°
2026-04-20 11:03 -11.41120 110.94788 39889 ft 493 kts 321°
2026-04-20 11:04 -11.35745 110.90431 39888 ft 493 kts 321°
2026-04-20 11:04 -11.30372 110.86076 39892 ft 494 kts 321°
2026-04-20 11:05 -11.24991 110.81717 39888 ft 493 kts 321°
2026-04-20 11:05 -11.19615 110.77365 39886 ft 493 kts 321°
2026-04-20 11:06 -11.14234 110.73011 39886 ft 494 kts 322°
2026-04-20 11:06 -11.08858 110.68662 39886 ft 494 kts 321°
2026-04-20 11:07 -11.03459 110.64298 39886 ft 494 kts 322°
2026-04-20 11:07 -10.98107 110.59973 39882 ft 494 kts 322°
2026-04-20 11:08 -10.92713 110.55617 39885 ft 495 kts 322°
2026-04-20 11:08 -10.87320 110.51264 39885 ft 495 kts 322°
2026-04-20 11:09 -10.81921 110.46907 39889 ft 495 kts 322°
2026-04-20 11:09 -10.76527 110.42557 39888 ft 495 kts 322°
2026-04-20 11:10 -10.71135 110.38210 39884 ft 495 kts 322°
2026-04-20 11:10 -10.66649 110.34596 39883 ft 495 kts 322°
2026-04-20 11:11 -10.61242 110.30241 39886 ft 494 kts 322°
2026-04-20 11:11 -10.55883 110.25926 39877 ft 495 kts 322°
2026-04-20 11:12 -10.50485 110.21583 39879 ft 495 kts 322°
2026-04-20 11:12 -10.45084 110.17239 39879 ft 495 kts 322°
2026-04-20 11:13 -10.39680 110.12894 39883 ft 495 kts 322°
2026-04-20 11:13 -10.34276 110.08552 39883 ft 495 kts 322°
2026-04-20 11:14 -10.28905 110.04238 39883 ft 495 kts 322°
2026-04-20 11:14 -10.23501 109.99899 39882 ft 495 kts 322°
2026-04-20 11:15 -10.18097 109.95562 39879 ft 495 kts 322°
2026-04-20 11:15 -10.12697 109.91230 39887 ft 495 kts 322°
2026-04-20 11:16 -10.07287 109.86893 39885 ft 495 kts 322°
2026-04-20 11:16 -10.01877 109.82557 39883 ft 496 kts 322°
2026-04-20 11:17 -9.96504 109.78253 39881 ft 496 kts 322°
2026-04-20 11:17 -9.91099 109.73925 39878 ft 495 kts 322°
2026-04-20 11:18 -9.85688 109.69594 39881 ft 496 kts 322°
2026-04-20 11:18 -9.80277 109.65265 39885 ft 495 kts 322°
2026-04-20 11:19 -9.74854 109.60928 39879 ft 496 kts 322°
2026-04-20 11:19 -9.69426 109.56589 39876 ft 495 kts 322°
2026-04-20 11:20 -9.64008 109.52260 39881 ft 495 kts 322°
2026-04-20 11:20 -9.58621 109.47958 39880 ft 497 kts 322°
2026-04-20 11:21 -9.53201 109.43630 39881 ft 495 kts 322°
2026-04-20 11:21 -9.47776 109.39301 39877 ft 496 kts 322°
2026-04-20 11:22 -9.42348 109.34971 39876 ft 496 kts 322°
2026-04-20 11:22 -9.36929 109.30650 39876 ft 497 kts 322°
2026-04-20 11:23 -9.31485 109.26311 39878 ft 497 kts 322°
2026-04-20 11:23 -9.26075 109.22000 39875 ft 497 kts 322°
2026-04-20 11:24 -9.20645 109.17676 39873 ft 496 kts 322°
2026-04-20 11:24 -9.15233 109.13367 39868 ft 495 kts 322°
2026-04-20 11:25 -9.09805 109.09049 39872 ft 496 kts 322°
2026-04-20 11:25 -9.04390 109.04741 39873 ft 499 kts 322°
2026-04-20 11:26 -8.98924 109.00395 39869 ft 498 kts 322°
2026-04-20 11:26 -8.93470 108.96060 39867 ft 498 kts 322°
2026-04-20 11:27 -8.87995 108.91711 39872 ft 503 kts 322°
2026-04-20 11:27 -8.82518 108.87361 39869 ft 499 kts 322°
2026-04-20 11:28 -8.77054 108.83023 39868 ft 500 kts 322°
2026-04-20 11:28 -8.71592 108.78688 39866 ft 498 kts 322°
2026-04-20 11:29 -8.66171 108.74388 39866 ft 499 kts 322°
2026-04-20 11:29 -8.60689 108.70041 39866 ft 499 kts 322°
2026-04-20 11:30 -8.55218 108.65704 39865 ft 500 kts 322°
2026-04-20 11:30 -8.49743 108.61366 39866 ft 500 kts 322°
2026-04-20 11:31 -8.44258 108.57021 39865 ft 500 kts 322°
2026-04-20 11:31 -8.38781 108.52684 39866 ft 501 kts 322°
2026-04-20 11:32 -8.33295 108.48342 39866 ft 500 kts 322°
2026-04-20 11:32 -8.27814 108.44006 39861 ft 500 kts 322°
2026-04-20 11:33 -8.22371 108.39700 39862 ft 502 kts 322°
2026-04-20 11:33 -8.16858 108.35341 39861 ft 502 kts 322°
2026-04-20 11:34 -8.11374 108.31006 39863 ft 502 kts 322°
2026-04-20 11:34 -8.05873 108.26659 39865 ft 502 kts 322°
2026-04-20 11:35 -8.00354 108.22368 39867 ft 501 kts 323°
2026-04-20 11:35 -7.94798 108.18080 39867 ft 502 kts 323°
2026-04-20 11:36 -7.89241 108.13782 39867 ft 503 kts 323°
2026-04-20 11:36 -7.83700 108.09492 39873 ft 503 kts 323°
2026-04-20 11:37 -7.78157 108.05202 39874 ft 502 kts 323°
2026-04-20 11:37 -7.69823 107.98756 39883 ft 502 kts 323°
2026-04-20 11:38 -7.64271 107.94462 39890 ft 503 kts 323°
2026-04-20 11:38 -7.58758 107.90201 39897 ft 503 kts 323°
2026-04-20 11:39 -7.53205 107.85910 39903 ft 503 kts 323°
2026-04-20 11:39 -7.47645 107.81616 39912 ft 503 kts 323°
2026-04-20 11:40 -7.42093 107.77328 39913 ft 503 kts 323°
2026-04-20 11:40 -7.36531 107.73035 39924 ft 504 kts 323°
2026-04-20 11:41 -7.30972 107.68744 39924 ft 503 kts 323°
2026-04-20 11:41 -7.25414 107.64456 39927 ft 503 kts 323°
2026-04-20 11:42 -7.19851 107.60166 39927 ft 504 kts 323°
2026-04-20 11:42 -7.14284 107.55874 39931 ft 504 kts 323°
2026-04-20 11:43 -7.08750 107.51609 39932 ft 504 kts 323°
2026-04-20 11:43 -7.03182 107.47311 39926 ft 504 kts 323°
2026-04-20 11:44 -6.97618 107.43009 39919 ft 505 kts 323°
2026-04-20 11:44 -6.92044 107.38702 39914 ft 504 kts 323°
2026-04-20 11:45 -6.86475 107.34403 39906 ft 505 kts 323°
2026-04-20 11:45 -6.80904 107.30102 39899 ft 505 kts 323°
2026-04-20 11:46 -6.75323 107.25795 39895 ft 505 kts 323°
2026-04-20 11:46 -6.69745 107.21491 39886 ft 506 kts 323°
2026-04-20 11:47 -6.64152 107.17178 39879 ft 506 kts 323°
2026-04-20 11:47 -6.58604 107.12900 39877 ft 506 kts 322°
2026-04-20 11:48 -6.53004 107.08584 39869 ft 506 kts 322°
2026-04-20 11:48 -6.47403 107.04268 39862 ft 506 kts 323°
2026-04-20 11:49 -6.41834 106.99977 39857 ft 506 kts 322°
2026-04-20 11:49 -6.36233 106.95664 39856 ft 507 kts 322°
2026-04-20 11:50 -6.30825 106.91117 39858 ft 507 kts 312°
2026-04-20 11:50 -6.26898 106.85292 39857 ft 508 kts 295°
2026-04-20 11:51 -6.24802 106.78525 39856 ft 508 kts 283°
2026-04-20 11:51 -6.23183 106.71612 39829 ft 509 kts 283°
2026-04-20 11:52 -6.21553 106.64726 39828 ft 509 kts 283°
2026-04-20 11:52 -6.19394 106.57964 39831 ft 508 kts 297°
2026-04-20 11:53 -6.15353 106.52155 39827 ft 508 kts 315°
2026-04-20 11:53 -6.09780 106.47849 39830 ft 507 kts 332°
2026-04-20 11:54 -6.03640 106.44370 39830 ft 507 kts 330°
2026-04-20 11:54 -5.97507 106.40858 39835 ft 507 kts 330°
2026-04-20 11:55 -5.91408 106.37374 39835 ft 507 kts 330°
2026-04-20 11:55 -5.85274 106.33876 39834 ft 507 kts 330°
2026-04-20 11:56 -5.79137 106.30376 39837 ft 506 kts 330°
2026-04-20 11:56 -5.73011 106.26884 39839 ft 506 kts 330°
2026-04-20 11:57 -5.66873 106.23386 39843 ft 506 kts 330°
2026-04-20 11:57 -5.60784 106.19917 39840 ft 506 kts 330°
2026-04-20 11:58 -5.54655 106.16426 39849 ft 507 kts 330°
2026-04-20 11:58 -5.48522 106.12933 39850 ft 506 kts 330°
2026-04-20 11:59 -5.42394 106.09444 39847 ft 506 kts 330°
2026-04-20 11:59 -5.37288 106.06538 39848 ft 506 kts 330°
2026-04-20 12:00 -5.30168 106.02486 39853 ft 506 kts 330°
2026-04-20 12:00 -5.25076 105.99588 39851 ft 506 kts 330°
2026-04-20 12:01 -5.17922 105.95519 39855 ft 506 kts 330°
2026-04-20 12:01 -5.12832 105.92624 39855 ft 505 kts 330°
2026-04-20 12:02 -5.06714 105.89140 39856 ft 505 kts 330°
2026-04-20 12:02 -5.00600 105.85656 39851 ft 505 kts 330°
2026-04-20 12:03 -4.94492 105.82176 39851 ft 505 kts 330°
2026-04-20 12:03 -4.88427 105.78722 39848 ft 504 kts 330°
2026-04-20 12:04 -4.82314 105.75243 39850 ft 504 kts 330°
2026-04-20 12:04 -4.76218 105.71772 39848 ft 503 kts 330°
2026-04-20 12:05 -4.70121 105.68303 39849 ft 504 kts 330°
2026-04-20 12:05 -4.64025 105.64834 39851 ft 503 kts 330°
2026-04-20 12:06 -4.57968 105.61389 39846 ft 503 kts 330°
2026-04-20 12:06 -4.51872 105.57921 39847 ft 503 kts 330°
2026-04-20 12:07 -4.45786 105.54461 39845 ft 502 kts 330°
2026-04-20 12:07 -4.39705 105.51003 39845 ft 502 kts 330°
2026-04-20 12:08 -4.33626 105.47547 39842 ft 502 kts 330°
2026-04-20 12:08 -4.27592 105.44118 39842 ft 502 kts 330°
2026-04-20 12:09 -4.21513 105.40664 39840 ft 502 kts 330°
2026-04-20 12:09 -4.15436 105.37212 39838 ft 502 kts 330°
2026-04-20 12:10 -4.09364 105.33762 39835 ft 501 kts 330°
2026-04-20 12:10 -4.03296 105.30316 39834 ft 502 kts 330°
2026-04-20 12:11 -3.97221 105.26867 39833 ft 502 kts 330°
2026-04-20 12:11 -3.91147 105.23418 39832 ft 502 kts 330°
2026-04-20 12:12 -3.85065 105.19990 39828 ft 502 kts 331°
2026-04-20 12:12 -3.79018 105.16590 39830 ft 502 kts 331°
2026-04-20 12:13 -3.72927 105.13162 39829 ft 501 kts 331°
2026-04-20 12:13 -3.66846 105.09739 39830 ft 501 kts 331°
2026-04-20 12:14 -3.60746 105.06306 39828 ft 502 kts 331°
2026-04-20 12:14 -3.54661 105.02882 39826 ft 502 kts 331°
2026-04-20 12:15 -3.48613 104.99479 39827 ft 502 kts 331°
2026-04-20 12:15 -3.42507 104.96044 39828 ft 503 kts 331°
2026-04-20 12:16 -3.36408 104.92613 39824 ft 502 kts 331°
2026-04-20 12:16 -3.30307 104.89182 39825 ft 503 kts 331°
2026-04-20 12:17 -3.24244 104.85773 39827 ft 503 kts 331°
2026-04-20 12:17 -3.18139 104.82340 39826 ft 503 kts 331°
2026-04-20 12:18 -3.12028 104.78905 39828 ft 503 kts 331°
2026-04-20 12:18 -3.05925 104.75474 39829 ft 503 kts 331°
2026-04-20 12:19 -2.99819 104.72043 39829 ft 503 kts 330°
2026-04-20 12:19 -2.93719 104.68616 39827 ft 502 kts 331°
2026-04-20 12:20 -2.87387 104.65772 39827 ft 502 kts 341°
2026-04-20 12:20 -2.80644 104.63945 39829 ft 502 kts 349°
2026-04-20 12:21 -2.73773 104.62668 39826 ft 502 kts 349°
2026-04-20 12:21 -2.66902 104.61361 39830 ft 502 kts 349°
2026-04-20 12:22 -2.60025 104.60057 39831 ft 502 kts 349°
2026-04-20 12:22 -2.53162 104.58760 39834 ft 502 kts 349°
2026-04-20 12:23 -2.46346 104.57472 39833 ft 502 kts 349°
2026-04-20 12:23 -2.39480 104.56175 39837 ft 502 kts 349°
2026-04-20 12:24 -2.32604 104.54876 39840 ft 502 kts 349°
2026-04-20 12:24 -2.25736 104.53578 39840 ft 502 kts 349°
2026-04-20 12:25 -2.18861 104.52280 39839 ft 502 kts 349°
2026-04-20 12:25 -2.11994 104.50983 39846 ft 503 kts 349°
2026-04-20 12:26 -2.05121 104.49684 39843 ft 503 kts 349°
2026-04-20 12:26 -1.98240 104.48385 39845 ft 503 kts 349°
2026-04-20 12:27 -1.91405 104.47094 39850 ft 503 kts 349°
2026-04-20 12:27 -1.84531 104.45796 39855 ft 503 kts 349°
2026-04-20 12:28 -1.77635 104.44494 39859 ft 503 kts 349°
2026-04-20 12:28 -1.70766 104.43198 39856 ft 503 kts 349°
2026-04-20 12:29 -1.63890 104.41900 39859 ft 502 kts 349°
2026-04-20 12:29 -1.57016 104.40602 39863 ft 503 kts 349°
2026-04-20 12:30 -1.50142 104.39305 39862 ft 503 kts 349°
2026-04-20 12:30 -1.43315 104.38016 39862 ft 502 kts 349°
2026-04-20 12:31 -1.36442 104.36719 39864 ft 502 kts 349°
2026-04-20 12:31 -1.29562 104.35421 39862 ft 502 kts 349°
2026-04-20 12:32 -1.22692 104.34125 39866 ft 502 kts 349°
2026-04-20 12:32 -1.15917 104.32847 39860 ft 488 kts 349°
2026-04-20 12:33 -1.09296 104.31597 39862 ft 483 kts 349°
2026-04-20 12:33 -1.02676 104.30348 39865 ft 484 kts 349°
2026-04-20 12:34 -0.96045 104.29097 39870 ft 484 kts 349°
2026-04-20 12:34 -0.89421 104.27847 39867 ft 484 kts 349°
2026-04-20 12:35 -0.82853 104.26608 39866 ft 483 kts 349°
2026-04-20 12:35 -0.76241 104.25361 39856 ft 483 kts 349°
2026-04-20 12:36 -0.69630 104.24114 39851 ft 483 kts 349°
2026-04-20 12:36 -0.63031 104.22869 39329 ft 482 kts 349°
2026-04-20 12:37 -0.59718 104.22244 38531 ft 487 kts 349°
2026-04-20 12:37 -0.56364 104.21611 37396 ft 494 kts 349°
2026-04-20 12:37 -0.52956 104.20952 36225 ft 502 kts 348°
2026-04-20 12:37 -0.49513 104.20265 35181 ft 507 kts 348°
2026-04-20 12:38 -0.46041 104.19569 34220 ft 510 kts 349°
2026-04-20 12:38 -0.42554 104.18872 33277 ft 510 kts 349°
2026-04-20 12:38 -0.39099 104.18184 32647 ft 503 kts 349°
2026-04-20 12:38 -0.35735 104.17515 32167 ft 494 kts 349°
2026-04-20 12:39 -0.29041 104.16186 30823 ft 486 kts 348°
2026-04-20 12:39 -0.25729 104.15529 30171 ft 483 kts 348°
2026-04-20 12:39 -0.22452 104.14878 29450 ft 480 kts 348°
2026-04-20 12:40 -0.19193 104.14231 28788 ft 474 kts 348°
2026-04-20 12:40 -0.15977 104.13593 28133 ft 469 kts 348°
2026-04-20 12:40 -0.12786 104.12960 27482 ft 464 kts 348°
2026-04-20 12:40 -0.09650 104.12336 26797 ft 457 kts 348°
2026-04-20 12:41 -0.06479 104.11701 26192 ft 471 kts 348°
2026-04-20 12:41 -0.03297 104.11071 25772 ft 467 kts 348°
2026-04-20 12:41 -0.00169 104.10453 25606 ft 449 kts 348°
2026-04-20 12:41 0.02831 104.09860 25315 ft 432 kts 348°
2026-04-20 12:42 0.05806 104.09270 24347 ft 431 kts 348°
2026-04-20 12:42 0.08741 104.08688 23079 ft 439 kts 348°
2026-04-20 12:42 0.11727 104.08095 22141 ft 433 kts 348°
2026-04-20 12:42 0.14640 104.07517 21593 ft 419 kts 348°
2026-04-20 12:43 0.17441 104.06961 21150 ft 404 kts 348°
2026-04-20 12:43 0.20179 104.06418 20421 ft 398 kts 348°
2026-04-20 12:43 0.22883 104.05881 19661 ft 394 kts 348°
2026-04-20 12:43 0.25564 104.05348 18898 ft 391 kts 348°
2026-04-20 12:44 0.28221 104.04821 18161 ft 388 kts 348°
2026-04-20 12:44 0.30861 104.04297 17349 ft 384 kts 348°
2026-04-20 12:44 0.33466 104.03780 16593 ft 379 kts 348°
2026-04-20 12:44 0.36042 104.03270 15838 ft 375 kts 348°
2026-04-20 12:45 0.38592 104.02764 15098 ft 371 kts 348°
2026-04-20 12:45 0.41109 104.02265 14378 ft 367 kts 348°
2026-04-20 12:45 0.43599 104.01771 13664 ft 364 kts 348°
2026-04-20 12:45 0.46084 104.01278 12884 ft 360 kts 348°
2026-04-20 12:46 0.48523 104.00795 12140 ft 355 kts 348°
2026-04-20 12:46 0.50933 104.00317 11422 ft 351 kts 348°
2026-04-20 12:46 0.53314 103.99845 10700 ft 347 kts 348°
2026-04-20 12:46 0.55641 103.99384 10052 ft 343 kts 348°
2026-04-20 12:47 0.57970 103.98921 9320 ft 339 kts 348°
2026-04-20 12:47 0.60270 103.98466 8664 ft 333 kts 348°
2026-04-20 12:47 0.62476 103.98028 8450 ft 313 kts 348°
2026-04-20 12:47 0.64552 103.97617 8271 ft 295 kts 348°
2026-04-20 12:48 0.66538 103.97223 8103 ft 288 kts 348°
2026-04-20 12:48 0.68502 103.96833 7993 ft 288 kts 348°
2026-04-20 12:48 0.70463 103.96444 7736 ft 286 kts 348°
2026-04-20 12:48 0.72402 103.96060 7342 ft 287 kts 348°
2026-04-20 12:49 0.74368 103.95663 6866 ft 289 kts 348°
2026-04-20 12:49 0.76343 103.95239 6419 ft 291 kts 347°
2026-04-20 12:49 0.78320 103.94808 5864 ft 290 kts 347°
2026-04-20 12:49 0.79615 103.94526 5671 ft 283 kts 347°
2026-04-20 12:50 0.82141 103.93979 5319 ft 275 kts 347°
2026-04-20 12:50 0.83382 103.93712 5086 ft 274 kts 347°
2026-04-20 12:50 0.85241 103.93312 4726 ft 273 kts 348°
2026-04-20 12:50 0.87091 103.92914 4381 ft 271 kts 348°
2026-04-20 12:51 0.88928 103.92520 4085 ft 267 kts 348°
2026-04-20 12:51 0.90712 103.92137 3997 ft 256 kts 348°
2026-04-20 12:51 0.92421 103.91770 3996 ft 249 kts 348°
2026-04-20 12:51 0.94107 103.91410 3997 ft 246 kts 348°
2026-04-20 12:52 0.95784 103.91052 3999 ft 247 kts 348°
2026-04-20 12:52 0.97447 103.90696 3997 ft 248 kts 348°
2026-04-20 12:52 0.99138 103.90335 3997 ft 248 kts 348°
2026-04-20 12:52 1.00836 103.90039 3997 ft 247 kts 358°
2026-04-20 12:53 1.02570 103.90020 3995 ft 261 kts
2026-04-20 12:53 1.04493 103.90010 3936 ft 283 kts
2026-04-20 12:53 1.06453 103.89998 3887 ft 282 kts
2026-04-20 12:53 1.08387 103.89985 3804 ft 272 kts
2026-04-20 12:54 1.10223 103.89968 3726 ft 254 kts
2026-04-20 12:54 1.11924 103.89951 3544 ft 236 kts
2026-04-20 12:54 1.13512 103.89930 3414 ft 220 kts
2026-04-20 12:54 1.14993 103.89910 3320 ft 206 kts
2026-04-20 12:55 1.16353 103.89986 3210 ft 183 kts 10°
2026-04-20 12:55 1.17545 103.90288 3015 ft 178 kts 19°
2026-04-20 12:55 1.18735 103.90737 2997 ft 186 kts 23°
2026-04-20 12:55 1.19936 103.91247 3004 ft 188 kts 24°
2026-04-20 12:56 1.21137 103.91764 2888 ft 188 kts 24°
2026-04-20 12:56 1.22330 103.92280 2638 ft 186 kts 24°
2026-04-20 12:56 1.23520 103.92793 2389 ft 184 kts 24°
2026-04-20 12:56 1.24647 103.93280 2151 ft 169 kts 24°
2026-04-20 12:57 1.25699 103.93735 1952 ft 165 kts 25°
2026-04-20 12:57 1.26733 103.94181 1740 ft 157 kts 25°
2026-04-20 12:57 1.27705 103.94601 1552 ft 147 kts 25°
2026-04-20 12:57 1.28601 103.94988 1357 ft 137 kts 25°
2026-04-20 12:58 1.29474 103.95366 1187 ft 136 kts 25°
2026-04-20 12:58 1.30346 103.95742 1006 ft 137 kts 24°
2026-04-20 12:58 1.31218 103.96126 847 ft 137 kts 22°
2026-04-20 12:58 1.32073 103.96534 672 ft 137 kts 23°
2026-04-20 12:59 1.32937 103.96925 461 ft 137 kts 20°
2026-04-20 12:59 1.33795 103.97291 290 ft 131 kts 18°
2026-04-20 12:59 1.34651 103.97643 131 ft 133 kts 19°
2026-04-20 12:59 1.35468 103.97988 36 ft 112 kts 19°
2026-04-20 13:00 1.36031 103.98225 31 ft 63 kts 24°
2026-04-20 13:00 1.36428 103.98391 32 ft 62 kts 24°
2026-04-20 13:00 1.36701 103.98563 31 ft 35 kts 51°
2026-04-20 13:00 1.36816 103.98710 32 ft 20 kts 53°
2026-04-20 13:01 1.36869 103.98764 32 ft 11 kts 30°
2026-04-20 13:01 1.36944 103.98806 31 ft 14 kts 27°
2026-04-20 13:01 1.36988 103.98827 31 ft 2 kts 25°
2026-04-20 13:01 1.37006 103.98850 31 ft 8 kts 81°
2026-04-20 13:02 1.36985 103.98916 32 ft 12 kts 114°
2026-04-20 13:02 1.36947 103.99003 32 ft 15 kts 114°
2026-04-20 13:02 1.36902 103.99107 32 ft 18 kts 112°
2026-04-20 13:02 1.36852 103.99227 32 ft 20 kts 113°
2026-04-20 13:03 1.36798 103.99356 32 ft 20 kts 113°
2026-04-20 13:03 1.36742 103.99484 32 ft 21 kts 114°
2026-04-20 13:03 1.36692 103.99603 32 ft 18 kts 112°
2026-04-20 13:03 1.36658 103.99673 32 ft 10 kts 139°
2026-04-20 13:04 1.36598 103.99672 32 ft 12 kts 197°
2026-04-20 13:04 1.36508 103.99637 32 ft 16 kts 202°
2026-04-20 13:04 1.36399 103.99589 32 ft 16 kts 217°
2026-04-20 13:04 1.36336 103.99513 32 ft 16 kts 232°
2026-04-20 13:05 1.36283 103.99447 32 ft 10 kts 234°
2026-04-20 13:05 1.36280 103.99407 32 ft 6 kts 297°
2026-04-20 13:05 1.36300 103.99371 32 ft 3 kts 306°
2026-04-20 13:05 1.36310 103.99357 32 ft 1 kts 306°
2026-04-20 13:06 1.36312 103.99354 32 ft 0 kts 307°